User: anonymous   Login
Location: Kawakawa
(35.3830°S, 174.0670°E)
Time: 14:04:02
(UTC+13:00)
Language:

Spot 2 Rocket - Orbit

View from above orbital plane
View from above orbital plane
View from above satellite
View from above satellite

Ground track
Ground track

The orbit data is extracted from the following two-line orbital elements,

1 20443U 90005H   19324.11208027 -.00000025  00000-0  66285-5 0  9997
2 20443  98.6070  20.9520 0009456 246.4970 113.5223 14.38075788562145
Epoch (UTC): 20 November 2019 02:41:23
Eccentricity: 0.0009456
inclination: 98.6070°
perigee height: 758 km
apogee height: 771 km
right ascension of ascending node: 20.9520°
argument of perigee: 246.4970°
revolutions per day: 14.38075788
mean anomaly at epoch: 113.5223°
orbit number at epoch: 56214

The dashed part of the orbit path shows where the satellite is in the earth's shadow,  

DLR